Regional Weather Roundup
Issued by NWS

Home | Current Version | Previous Version | Graphics & Text | Print | Product List | Glossary On
Versions: 1 2 3 4 5 6 7 8 9 10 11 12 13 14 15 16 17 18 19 20 21 22 23 24 25 26 27 28 29 30 31 32 33 34 35 36 37 38 39 40 41 42 43 44 45 46 47 48 49 50
000
ASUS45 KCYS 040410
RWRWY

WYOMING REGIONAL WEATHER ROUNDUP
NATIONAL WEATHER SERVICE CHEYENNE WY
1000 PM MDT FRI JUL 03 2015

NOTE:  "FAIR" INDICATES FEW OR NO CLOUDS BELOW 12,000 FEET
WITH NO SIGNIFICANT WEATHER AND/OR OBSTRUCTIONS TO VISIBILITY.

WYZ001-040500-
YELLOWSTONE NATIONAL PARK

CITY           SKY/WX    TMP DP  RH WIND       PRES   REMARKS
LK YELLOWSTONE   N/A     60  40  47 NW6       30.22R
W YELLOWSTONE  NOT AVBL

$$
WYZ002>013-054>058-071-098>099-040500-
NORTHERN WYOMING

CITY           SKY/WX    TMP DP  RH WIND       PRES   REMARKS
JACKSON        MOCLDY    70  52  52 N5        30.08R
CODY           MOCLDY    72  54  53 SW6       30.00R
GREYBULL       FAIR      83  49  30 S10       29.88R
WORLAND        FAIR      72  60  66 SW6       29.91R
SHERIDAN       FAIR      69  60  73 SW6       29.92R
BUFFALO        FAIR      71  55  56 S7        30.01R
GILLETTE       FAIR      73  56  54 S13       29.97R
HULETT         MOCLDY    70  61  73 S7        29.99R
NEWCASTLE      FAIR      70  54  56 MISG      30.02R

$$
WYZ014>020-022>026-101>103-040500-
CENTRAL WYOMING

CITY           SKY/WX    TMP DP  RH WIND       PRES   REMARKS
BIG PINEY      FAIR      66  43  43 NW9       30.15R
PINEDALE       FAIR      63  45  51 N3        30.17R
DUBOIS         FAIR      68  36  30 NW6       30.15R
LANDER         FAIR      77  49  37 NW8       30.01R
RIVERTON       FAIR      79  47  32 N13       30.00R
CASPER         FAIR      67  54  63 W7        30.04R
DOUGLAS        FAIR      70  52  52 S9        30.01R

$$
WYZ021-027>030-104>119-040500-
SOUTHERN WYOMING

CITY           SKY/WX    TMP DP  RH WIND       PRES   REMARKS
EVANSTON       FAIR      72  42  34 W10       30.18R
KEMMERER       FAIR     N/A N/A N/A SW5       30.18R
FORT BRIDGER   CLEAR     75  37  25 N5        30.19R
ROCK SPRINGS   FAIR      75  35  23 NW8       30.11R
DIXON          FAIR      69  42  37 E5        30.12R
RAWLINS        FAIR      69  49  48 NE8       30.12R
SARATOGA       FAIR      70  48  46 S10G20    30.15R
LARAMIE        FAIR      65  50  58 SE12      30.22R
CHEYENNE       FAIR      67  55  65 E7        30.16R
TORRINGTON     FAIR      74  57  55 SE13      30.02R
PINE BLUFFS    FAIR      70  55  60 SE7       30.12R

$$



USA.gov is the U.S. government's official web portal to all federal, state and local government web resources and services.